Home   Weather   San Andrés   Past weeks

Flag for Colombia Past Weather in San Andrés, Colombia — Yesterday and Last 2 Weeks

86 °F

Scattered clouds.

Feels Like: 99 °F
Forecast: 81 / 87 °F
Wind: 9 mph from Northeast

Location: San Andres Isla / Sesquicentenario

Current Time: Oct 23, 2016 at 1:04:11 PM

Latest Report: Oct 23, 2016 at 12:00 PM

Visibility: N/A

Pressure: 29.91 "Hg

Humidity: 79%

Dew Point: 79 °F

Location of San AndrésLocation

Past Weather in San Andrés — Graph


San Andrés Temperature Yesterday

Maximum temperature yesterday: 88 °F (at 12:00 PM)
Minimum temperature yesterday: 79 °F (at 12:00 AM)
Average temperature yesterday: 84 °F

High & Low Weather Summary for the Past Weeks

High88 °F (Oct 9, 12:00 PM)94% (Oct 9, 1:00 AM)29.93 "Hg (Oct 9, 1:00 AM)
Low75 °F (Oct 13, 4:00 PM)70% (Oct 9, 12:00 PM)29.70 "Hg (Oct 17, 4:00 PM)
Average82 °F85%29.82 "Hg
* Reported Oct 8 12:00 PM — Oct 23 12:00 PM, San Andrés, Weather by CustomWeather, © 2016

Note: Actual official high and low records may vary slightly from our data, if they occured in-between our weather recording intervals... More about our weather records


San Andrés Weather History for the Previous 24 Hours

Scroll right to see more
Time TempWeatherWind HumidityBarometerVisibility
12:00 PM
Sun, Oct 23
86 °FScattered clouds.9 mph79%29.91 "HgN/A
11:00 AM86 °FScattered clouds.12 mph84%29.93 "HgN/A
10:00 AM84 °FScattered clouds.7 mph84%29.93 "HgN/A
9:00 AM84 °FScattered clouds.12 mph84%29.92 "HgN/A
8:00 AM82 °FBroken clouds.12 mph89%29.91 "HgN/A
7:00 AM82 °FPartly sunny.9 mph84%29.89 "HgN/A
6:00 AM82 °FPassing clouds.10 mph84%29.86 "HgN/A
4:00 AM82 °FPassing clouds.12 mph84%29.84 "HgN/A
3:00 AM82 °FPartly cloudy.12 mph84%29.85 "HgN/A
2:00 AM82 °FPassing clouds.10 mph84%29.86 "HgN/A
1:00 AM82 °FPassing clouds.10 mph84%29.87 "HgN/A
12:00 AM82 °FPassing clouds.8 mph84%29.88 "HgN/A
11:00 PM
Sat, Oct 22
82 °FPassing clouds.8 mph84%29.89 "HgN/A
10:00 PM82 °FPartly cloudy.8 mph84%29.90 "HgN/A
9:00 PM82 °FPassing clouds.7 mph84%29.90 "HgN/A
8:00 PM82 °FPassing clouds.7 mph89%29.88 "HgN/A
7:00 PM84 °FPassing clouds.6 mph79%29.86 "HgN/A
6:00 PM84 °FPartly sunny.8 mph79%29.84 "HgN/A
5:00 PM86 °FScattered clouds.8 mph75%29.83 "HgN/A
4:00 PM84 °FScattered clouds.8 mph79%29.82 "HgN/A
3:00 PM86 °FPassing clouds.8 mph79%29.82 "HgN/A
2:00 PM86 °FScattered clouds.7 mph79%29.84 "HgN/A
1:00 PM86 °FPartly sunny.8 mph75%29.87 "HgN/A
Weather by CustomWeather, © 2016

See weather overviewHow to use our weather pages